Lexington Weather

Lexington, Massachusetts, USA

39°F
1/28/2023 9:41pm 
  • Lexington Conditions: Clear
  • Temperature: 38.7°F / 3.7°CColder 0.1°F than last hour.
  • Dew Point: 27.9°FIncreased 1.3°Fsince last hour.
  • Relative Humidity: 65%Increased 4.0% since last hour.
  • Wind: Calm, 10-min avg: Calm, gust: None
  • Barometer: 30.25 inRising 0.02  inHg/hr Rising Slowly
  • Visibility: 10 miles
  • Rain Today: 0.00 in
  •   

Regional Weather Roundup
for Boston, MA

        
000
ASUS41 KBOX 231610
RWRBOX

REGIONAL WEATHER ROUNDUP
NATIONAL WEATHER SERVICE BOSTON/NORTON MA
1100 AM EST MON JAN 23 2023

NOTE:  "FAIR" INDICATES FEW OR NO CLOUDS BELOW 12,000 FEET WITH NO 
SIGNIFICANT WEATHER AND/OR OBSTRUCTIONS TO VISIBILITY.

MAZALL-231700-
EASTERN MASSACHUSETTS
  
CITY           SKY/WX    TMP DP  RH WIND       PRES   REMARKS
BOSTON         LGT RAIN  35  33  92 N17       29.49F WCI  25          
BEVERLY        CLOUDY    32  31  96 N15G23    29.47F WCI  22          
LAWRENCE       LGT RAIN  33  31  92 N14       29.50F FOG     WCI  23  
BEDFORD        CLOUDY    35  31  85 N10       29.49F WCI  27          
NORWOOD        CLOUDY    37  33  85 N13G18    29.49F WCI  29          
MARSHFIELD     CLOUDY    39  37  93 N15G28    29.46F FOG     WCI  31  
PLYMOUTH       LGT RAIN  40  38  93 N14G22    29.44S FOG              
TAUNTON          N/A    N/A N/A N/A MISG      29.46F                  
NEW BEDFORD    LGT RAIN  41  41 100 N12G17    29.44F                  
$$

MAZALL-231700-
CAPE COD AND THE ISLANDS
  
CITY           SKY/WX    TMP DP  RH WIND       PRES   REMARKS
FALMOUTH       FOG       41  41 100 N15G25    29.43F VSB 1            
HYANNIS        LGT RAIN  43  42  97 N17G24    29.40F VSB 1            
CHATHAM        CLOUDY    47  44  90 N9G18     29.40F FOG              
PROVINCETOWN   LGT RAIN  42  42 100 N17G26    29.45R FOG              
NANTUCKET      FOG       45  45 100 NW17      29.39F VSB 1            
MARTHAS VNYRD  LGT RAIN  45  43  93 N15G23    29.42F FOG              
$$
 
MAZALL-231700-
CENTRAL AND WESTERN MASSACHUSETTS
  
CITY           SKY/WX    TMP DP  RH WIND       PRES   REMARKS
WORCESTER      CLOUDY    33  31  92 NE13G23   29.45F WCI  24          
FITCHBURG      LGT SNOW  33  29  85 N10       29.52S FOG     WCI  25  
ORANGE         LGT SNOW  33  30  88 NW9       29.52F FOG     WCI  25  
SPRINGFIELD    LGT SNOW  32  32  99 N13       29.49F FOG     WCI  23  
WESTFIELD      LGT SNOW  33  31  92 N13       29.52S VSB 1   WCI  24  
NORTH ADAMS    SNOW      32  30  92 W6        29.55F VSB 1/2 WCI  26  
PITTSFIELD     HVY SNOW  32  30  92 NW6       29.50F VSB 1/4 WCI  26  
$$
 
RIZALL-231700-
RHODE ISLAND
  
CITY           SKY/WX    TMP DP  RH WIND       PRES   REMARKS
PROVIDENCE     LGT RAIN  35  35 100 N13       29.49S WCI  26          
NEWPORT        RAIN      38  36  92 N16       29.44F FOG     WCI  29  
BLOCK ISLAND   LGT RAIN  37  36  96 N15       29.45F FOG     WCI  28  
SMITHFIELD     CLOUDY    34  33  96 N10       29.46F WCI  26          
WESTERLY       LGT RAIN  38  36  92 N7        29.45F FOG              
$$
 
CTZALL-231700-
CONNECTICUT
  
CITY           SKY/WX    TMP DP  RH WIND       PRES   REMARKS
BRADLEY INTL   LGT SNOW  34  31  88 N12       29.50F FOG     WCI  25  
HARTFORD       LGT SNOW  37  34  89 N9        29.50F FOG     WCI  30  
BRIDGEPORT     LGT RAIN  39  38  96 N7        29.51F FOG              
DANBURY        LGT RAIN  36  33  89 NW7       29.53S FOG     WCI  30  
GROTON         CLOUDY    40  37  89 N5        29.46F FOG              
NEW HAVEN      LGT RAIN  39  38  96 N10G21    29.50S FOG              
CHESTER        LGT RAIN  36  36 100 N8        29.47F VSB 1/2 WCI  29  
MERIDEN        LGT RAIN  37  33  85 N9        29.50S FOG     WCI  30  
WILLIMANTIC    LGT RAIN  36  34  92 N7G18     29.48F FOG     WCI  30  
OXFORD         MIX PCPN  37  36  96 N9        29.49F FOG     WCI  30  
$$

MEZ002-015-021-024-NHZ003-005-008-011-012-014-VTZ005-008-231700-
NORTHERN NEW ENGLAND
  
CITY           SKY/WX    TMP DP  RH WIND       PRES   REMARKS
PORTLAND ME    LGTSLEET  29  26  89 N16G25    29.53F FOG     WCI  17  
BANGOR ME      LGT SNOW  28  25  88 N17       29.56F FOG     WCI  16  
CONCORD NH     SNOW      31  28  89 N12G22    29.53F VSB 1/2 WCI  22  
MANCHESTER NH  LGT SNOW  33  29  85 N12       29.50F FOG     WCI  24  
NASHUA NH      LGT SNOW  33  33 100 N12       29.52F FOG     WCI  24  
PORTSMOUTH NH  LGT SNOW  31  29  90 N9        29.52F FOG     WCI  23  
JAFFREY NH     LGT SNOW  34  30  86 VRB6      29.50F VSB 3/4 WCI  29  
KEENE NH       SNOW      31  30  96 N9          N/A  VSB 1/2 WCI  23  
BURLINGTON VT  CLOUDY    30  26  85 N12       29.67F WCI  20          
MT. WASHINGTON SNOW      23  23 100 N16         N/A  VSB 1/16WCI  10  
$$

NYZ052-076-231700-
EASTERN NEW YORK
  
CITY           SKY/WX    TMP DP  RH WIND       PRES   REMARKS
ALBANY         LGT SNOW  33  31  92 NW9       29.61F VSB 3/4 WCI  25  
NEW YORK CITY  LGT RAIN  38  34  85 NW13      29.55S FOG     WCI  30  
$$
 
ANZALL-231700-
MARINE OBSERVATIONS
  
STATION/POSITION TIME  TEMP    WIND        PRES    VSBY  WAVE
                       AIR SEA DIR/SP/G                  HT/PER
                 (UTC) (F)     (DEG/KT/KT) (MB)    (MI)  (FT/S)
BOSTON BUOY      1540      42                N/A           8/ 8
BUZZARDS BAY     1500   42      20/ 17/ 20  997.3S
NANTUCKET SOUND  1550   44 42  340/ 17/ 21  996.3R         2/ 3
MASS BAY-STELLWA 1404   39 42   20/ 25/ 31  997.0S  1 7/8 10/ 8
ISLE OF SHOALS   1500   32      10/ 22/ 25  999.8R
S OF BLOCK IS    1556      44                N/A          11/10
$$

......................KEY.........................
  SKY/WX - SKY CONDITION/PRESENT WEATHER
  TMP    - TEMPERATURE IN FAHRENHEIT
  DWPT   - DEWPOINT IN FAHRENHEIT
  RH     - RELATIVE HUMIDITY IN PERCENT
  WIND   - DIRECTION AND SPEED IN MPH
  PRES   - MEAN SEA LEVEL PRESSURE IN INCHES OF HG
  WCI    - WIND CHILL INDEX
  VSB    - VISIBILITY IN MILES
  HX     - HEAT INDEX
  TC     - TEMPERATURE IN CELSIUS
  VRB    - VARIABLE WIND DIRECTION
  N/A    - NOT AVAILABLE
  
      

Other recent Regional Weather Roundups

Sat Jan 28, 9:10pm EST

Sat Jan 28, 8:10pm EST

Sat Jan 28, 7:10pm EST

Sat Jan 28, 6:10pm EST

Sat Jan 28, 5:10pm EST

Sat Jan 28, 4:10pm EST

Sat Jan 28, 3:10pm EST

Sat Jan 28, 2:10pm EST

Sat Jan 28, 1:10pm EST

Sat Jan 28, 12:10pm EST

Sat Jan 28, 11:10am EST

Sat Jan 28, 10:10am EST

Sat Jan 28, 9:10am EST

Sat Jan 28, 8:10am EST

Sat Jan 28, 7:10am EST

Sat Jan 28, 6:10am EST

Sat Jan 28, 5:10am EST

Sat Jan 28, 4:10am EST

Sat Jan 28, 3:10am EST

Sat Jan 28, 2:10am EST

Sat Jan 28, 1:10am EST

Sat Jan 28, 12:10am EST

Fri Jan 27, 11:10pm EST

Fri Jan 27, 10:10pm EST

Fri Jan 27, 9:10pm EST

Fri Jan 27, 8:10pm EST

Fri Jan 27, 7:10pm EST

Fri Jan 27, 6:10pm EST

Fri Jan 27, 5:10pm EST

Fri Jan 27, 4:10pm EST

Fri Jan 27, 3:10pm EST

Fri Jan 27, 2:10pm EST

Fri Jan 27, 1:10pm EST

Fri Jan 27, 12:10pm EST

Fri Jan 27, 11:10am EST

Fri Jan 27, 10:10am EST

Fri Jan 27, 9:10am EST

Fri Jan 27, 8:10am EST

Fri Jan 27, 7:10am EST

Fri Jan 27, 6:10am EST

Fri Jan 27, 5:10am EST

Fri Jan 27, 4:10am EST

Fri Jan 27, 3:10am EST

Fri Jan 27, 2:10am EST

Fri Jan 27, 1:10am EST

Fri Jan 27, 12:10am EST

Thu Jan 26, 11:10pm EST

Thu Jan 26, 10:10pm EST

Thu Jan 26, 9:10pm EST

Thu Jan 26, 8:10pm EST

Thu Jan 26, 7:10pm EST

Thu Jan 26, 6:10pm EST

Thu Jan 26, 5:10pm EST

Thu Jan 26, 4:10pm EST

Thu Jan 26, 3:10pm EST

Thu Jan 26, 2:10pm EST

Thu Jan 26, 1:10pm EST

Thu Jan 26, 12:10pm EST

Thu Jan 26, 11:10am EST

Thu Jan 26, 10:10am EST

Thu Jan 26, 9:10am EST

Thu Jan 26, 8:10am EST

Thu Jan 26, 7:10am EST

Thu Jan 26, 6:10am EST

Thu Jan 26, 5:10am EST

Thu Jan 26, 4:10am EST

Thu Jan 26, 3:10am EST

Thu Jan 26, 2:10am EST

Thu Jan 26, 1:10am EST

Thu Jan 26, 12:10am EST

Wed Jan 25, 11:10pm EST

Wed Jan 25, 10:10pm EST

Wed Jan 25, 9:10pm EST

Wed Jan 25, 8:10pm EST

Wed Jan 25, 7:10pm EST

Wed Jan 25, 6:10pm EST

Wed Jan 25, 5:10pm EST

Wed Jan 25, 4:10pm EST

Wed Jan 25, 3:10pm EST

Wed Jan 25, 2:10pm EST

Wed Jan 25, 1:10pm EST

Wed Jan 25, 12:10pm EST

Wed Jan 25, 11:10am EST

Wed Jan 25, 10:10am EST

Wed Jan 25, 9:10am EST

Wed Jan 25, 8:10am EST

Wed Jan 25, 7:10am EST

Wed Jan 25, 6:10am EST

Wed Jan 25, 5:10am EST

Wed Jan 25, 4:10am EST

Wed Jan 25, 3:10am EST

Wed Jan 25, 2:10am EST

Wed Jan 25, 1:10am EST

Wed Jan 25, 12:10am EST

Tue Jan 24, 11:10pm EST

Tue Jan 24, 10:10pm EST

Tue Jan 24, 9:10pm EST

Tue Jan 24, 8:10pm EST

Tue Jan 24, 7:10pm EST

Tue Jan 24, 6:10pm EST

Tue Jan 24, 5:10pm EST

Tue Jan 24, 4:10pm EST

Tue Jan 24, 3:10pm EST

Tue Jan 24, 2:10pm EST

Tue Jan 24, 1:10pm EST

Tue Jan 24, 12:10pm EST

Tue Jan 24, 11:10am EST

Tue Jan 24, 10:10am EST

Tue Jan 24, 9:10am EST

Tue Jan 24, 8:10am EST

Tue Jan 24, 7:10am EST

Tue Jan 24, 6:10am EST

Tue Jan 24, 5:10am EST

Tue Jan 24, 4:10am EST

Tue Jan 24, 3:10am EST

Tue Jan 24, 2:10am EST

Tue Jan 24, 1:10am EST

Tue Jan 24, 12:10am EST

Mon Jan 23, 11:10pm EST

Mon Jan 23, 10:10pm EST

Mon Jan 23, 9:10pm EST

Mon Jan 23, 8:10pm EST

Mon Jan 23, 7:10pm EST

Mon Jan 23, 6:10pm EST

Mon Jan 23, 5:10pm EST

Mon Jan 23, 4:10pm EST

Mon Jan 23, 3:10pm EST

Mon Jan 23, 2:10pm EST

Mon Jan 23, 1:10pm EST

Mon Jan 23, 12:10pm EST

Mon Jan 23, 10:10am EST

Mon Jan 23, 9:10am EST

Mon Jan 23, 8:10am EST

Mon Jan 23, 7:10am EST

Mon Jan 23, 6:10am EST

Mon Jan 23, 5:10am EST

Mon Jan 23, 4:10am EST

Mon Jan 23, 3:10am EST

Mon Jan 23, 2:10am EST

Mon Jan 23, 1:10am EST

Mon Jan 23, 12:10am EST

Sun Jan 22, 11:10pm EST

Sun Jan 22, 10:10pm EST

Sun Jan 22, 9:10pm EST

Sun Jan 22, 8:10pm EST

Sun Jan 22, 7:10pm EST

Sun Jan 22, 6:10pm EST

Sun Jan 22, 5:10pm EST

Sun Jan 22, 4:10pm EST

Sun Jan 22, 3:10pm EST

Sun Jan 22, 2:10pm EST

Sun Jan 22, 1:10pm EST

Sun Jan 22, 12:10pm EST

Sun Jan 22, 11:10am EST

Sun Jan 22, 10:10am EST

Sun Jan 22, 9:10am EST

Sun Jan 22, 8:10am EST

Sun Jan 22, 7:10am EST

Sun Jan 22, 6:10am EST

Sun Jan 22, 5:10am EST

Sun Jan 22, 4:10am EST

Sun Jan 22, 3:10am EST

Sun Jan 22, 2:10am EST

Sun Jan 22, 1:10am EST

Sun Jan 22, 12:10am EST

Sat Jan 21, 11:10pm EST

Sat Jan 21, 10:10pm EST